Voltar ao catálogo

ITAMSAT

AtivoRádio AmadorSSO
NORAD 22826·PAYLOAD·🇮🇹 Italy

Lançado Sep 26, 1993 de Guiana Space Centre

Loading…

Próximas Passagens (próximas 24 horas)

TLE

AtualizadoSource: Space-Track

Época: Sep 14, 2026, 04:11 UTC

1 22826U 93061D   26257.17488645  .00000067  00000-0  42004-4 0  9991
2 22826  98.6745 324.4460 0008987 175.1252 185.0020 14.31389938720047

Acompanhe ITAMSAT em tempo real com AllMySat

Download on the App Store